Погода в Опытном

Россия / Кабардино-Балкарская Республика     43°37′51″N   44°08′04″E
темп.,
°C
ветер,
м/с
пор.,
м/с
влажн.,
%
обл.,
%
осадки,
мм/ч
давл.,
гПа
погр.,
м
20 мая, пт
пт2000:00+9зсз3988100 1.3 1019607
03:00+9юз2390100 1.4 1018102
06:00+9ююз3591100 0.6 1019198
09:00+13юз4569100 0.7 1019748
12:00+15зсз9136089 0.4 10181414
15:00+17сз8125444 0.6 10182229
18:00+15сз486854 0.4 1018587
21:00+10ююз3390100 1.8 102044
21 мая, сб
сб2100:00+9юз47895 0.1 1020115
03:00+8юз4788100 0.1 102096
06:00+9юз48831 0.0 1020165
09:00+18з474855 0.0 10191263
12:00+21зсз483853 0.0 10172372
15:00+22сз45455 0.0 10161834
18:00+19с236557 0.0 101566
21:00+15ююз2266100 0.0 101515
22 мая, вс
вс2200:00+13юз34720 0.0 101355
03:00+11юз356687 0.0 101262
06:00+13юз36655 0.0 1011117
09:00+20ю234895 0.0 1008397
12:00+24всв21380 0.0 10061245
15:00+25в33370 0.0 10041484
18:00+23св23550 0.0 100344
21:00+16с467275 0.1 100482
23 мая, пн
пн2300:00+13сз23830 0.0 100425
03:00+11з22850 0.0 100517
06:00+13зюз24821 0.0 1006117
09:00+18сз3455100 0.0 1005882
12:00+19ссз555864 0.0 10051189
15:00+19ссв3460100 0.2 10041144
18:00+14с2496100 3.6 1005162
21:00+13ссз3795100 6.4 1006256
24 мая, вт
вт2400:00+12з2497100 3.1 1007139
03:00+12юз2397100 5.6 1007123
06:00+12зюз2496100 0.9 1008170
09:00+12з2394100 3.8 1009229
12:00+13сз3388100 0.4 1010387
15:00+13сз3588100 0.6 1011382
18:00+12сз4992100 0.8 1014514
21:00+10зсз2697100 2.8 1017310